Powrót do katalogu

COSMOS 1275 DEB

AktywnyPO
NORAD 42107·DEBRIS·🇷🇺 Russia

Wystrzelony Jun 4, 1981 z Plesetsk Cosmodrome

Loading…

Następne Przeloty (najbliższe 24 godziny)

TLE

Starzejące sięSource: Space-Track

Epoka: Sep 10, 2026, 03:52 UTC

1 42107U 81053PT  26253.16156071  .00001677  00000-0  90905-3 0  9993
2 42107  82.8036  46.9128 0047369 131.3125 229.2143 14.11364308654838

Śledź COSMOS 1275 DEB w czasie rzeczywistym z AllMySat

Download on the App Store